Stations météo

réclame
Mon MeteoGroup
AWG, Pays-Bas (6208): Température de l'air & dewpoint: 17.04.2018 00:00:00 - 23.04.2018 00:00:00 (CEST)AWG, Pays-Bas (6208): Vitesse du vent & gusts: 17.04.2018 00:00:00 - 23.04.2018 00:00:00 (CEST)AWG, Pays-Bas (6208): Direction du vent: 17.04.2018 00:00:00 - 23.04.2018 00:00:00 (CEST)AWG, Pays-Bas (6208): reduced air pressure: 17.04.2018 00:00:00 - 23.04.2018 00:00:00 (CEST)AWG, Pays-Bas (6208): visibility: 17.04.2018 00:00:00 - 23.04.2018 00:00:00 (CEST)
Date & Time tt [°C] td [°C] ff [km/h] ff [knt] fx [km/h] fx [knt] dd ppp [hPa] vv [km]
23.04.2018 00:00:00 - - - - - - - - -
22.04.2018 23:00:00 16,8 10,1 31 17 40 21 SSW 1008,2 10
22.04.2018 22:00:00 17,5 11,9 31 17 36 19 SSW 1007,8 10
22.04.2018 21:00:00 18,3 12,4 16 9 18 10 SW 1008,0 10
22.04.2018 20:00:00 18,1 11,5 11 6 14 8 WSW 1007,8 13
22.04.2018 19:00:00 19,1 11,6 14 8 18 10 WSW 1007,9 13
22.04.2018 18:00:00 20,7 11,4 7 4 11 6 WSW 1008,1 16
22.04.2018 17:00:00 20,4 10,9 7 4 14 8 S 1008,5 18
22.04.2018 16:00:00 18,8 10,5 16 9 22 12 ESE 1009,2 10
22.04.2018 15:00:00 18,4 9,9 18 10 25 14 ESE 1010,0 10
22.04.2018 14:00:00 19,1 9,8 28 15 29 16 E 1010,8 10
22.04.2018 13:00:00 18,3 9,7 22 12 25 14 ESE 1011,5 10
22.04.2018 12:00:00 17,3 9,1 22 12 25 14 E 1012,3 10
22.04.2018 11:00:00 15,0 9,0 24 13 29 16 E 1013,0 10
22.04.2018 10:00:00 13,3 7,3 29 16 32 18 ESE 1013,5 10
22.04.2018 09:00:00 12,2 7,2 31 17 32 18 E 1014,2 10
22.04.2018 08:00:00 11,7 6,8 31 17 36 19 ESE 1014,7 10
22.04.2018 07:00:00 11,6 5,7 29 16 36 19 ESE 1015,1 28
22.04.2018 06:00:00 11,0 6,0 34 18 32 18 ESE 1015,8 10
22.04.2018 05:00:00 11,3 6,0 25 14 36 19 ESE 1016,6 37
22.04.2018 04:00:00 11,1 5,6 29 16 32 18 ESE 1017,3 35
22.04.2018 03:00:00 11,7 6,2 31 17 32 18 ESE 1017,9 10
22.04.2018 02:00:00 11,7 6,2 28 15 29 16 E 1018,8 10
22.04.2018 01:00:00 12,3 7,0 22 12 25 14 E 1019,4 10
22.04.2018 00:00:00 12,6 6,2 22 12 22 12 ESE 1019,6 10
21.04.2018 23:00:00 12,9 7,2 16 9 22 12 E 1020,2 10
21.04.2018 22:00:00 11,8 5,2 16 9 18 10 ESE 1020,7 10
21.04.2018 21:00:00 11,3 6,2 13 7 18 10 - 1021,0 10
21.04.2018 20:00:00 10,8 6,8 14 8 18 10 ENE 1021,2 29
21.04.2018 19:00:00 10,9 6,7 14 8 18 10 NE 1021,7 30
21.04.2018 18:00:00 9,8 7,3 18 10 22 12 NE 1022,2 18
21.04.2018 17:00:00 9,8 6,7 18 10 22 12 NNE 1022,7 26
21.04.2018 16:00:00 10,8 4,3 11 6 14 8 NNE 1023,3 34
21.04.2018 15:00:00 10,5 4,5 13 7 14 8 N 1023,8 10
21.04.2018 14:00:00 9,6 6,4 11 6 14 8 N 1024,0 10
21.04.2018 13:00:00 9,1 7,1 13 7 14 8 N 1024,3 10
21.04.2018 12:00:00 8,7 7,2 16 9 25 14 N 1024,5 10
21.04.2018 11:00:00 8,3 7,2 22 12 22 12 N 1024,5 10
21.04.2018 10:00:00 8,4 7,0 18 10 25 14 N 1024,1 10
21.04.2018 09:00:00 8,3 7,3 26 14 29 16 N 1023,8 10
21.04.2018 08:00:00 8,3 7,4 21 11 25 14 N 1023,3 10
21.04.2018 07:00:00 8,4 7,8 18 10 22 12 N 1023,0 16
21.04.2018 06:00:00 8,3 7,7 18 10 25 14 N 1022,6 11
21.04.2018 05:00:00 8,4 7,8 25 14 25 14 N 1022,5 11
21.04.2018 04:00:00 8,8 8,1 18 10 29 16 N 1022,7 14
21.04.2018 03:00:00 8,4 8,0 25 14 29 16 N 1022,7 8
21.04.2018 02:00:00 8,2 7,9 28 15 25 14 NNW 1022,7 7
21.04.2018 01:00:00 8,3 7,9 28 15 36 19 N 1022,8 4,7
21.04.2018 00:00:00 8,4 7,9 35 19 36 19 NNW 1022,3 4,5
20.04.2018 23:00:00 8,9 7,6 16 9 36 19 NNW 1022,1 3,3
20.04.2018 22:00:00 9,4 7,9 14 8 18 10 NW 1022,2 3,3
20.04.2018 21:00:00 9,8 8,2 18 10 18 10 NW 1021,9 2,4
20.04.2018 20:00:00 10,4 7,9 14 8 22 12 NW 1021,6 3,5
20.04.2018 19:00:00 10,5 7,8 21 11 25 14 NW 1021,5 3,9
20.04.2018 18:00:00 10,9 8,1 18 10 25 14 WNW 1021,7 3,5
20.04.2018 17:00:00 11,9 7,7 22 12 29 16 WNW 1021,6 4,7
20.04.2018 16:00:00 12,5 7,8 18 10 22 12 WNW 1021,6 5
20.04.2018 15:00:00 18,3 9,8 14 8 14 8 SW 1022,0 8
20.04.2018 14:00:00 16,6 6,9 13 7 14 8 W 1022,2 7
20.04.2018 13:00:00 15,4 6,5 15 8 18 10 WNW 1022,3 6
20.04.2018 12:00:00 15,5 6,5 16 9 18 10 WNW 1022,2 7
20.04.2018 11:00:00 16,1 5,9 18 10 22 12 W 1022,1 7
20.04.2018 10:00:00 16,0 7,4 22 12 22 12 W 1021,7 7
20.04.2018 09:00:00 15,9 10,2 22 12 22 12 W 1021,6 6
20.04.2018 08:00:00 14,4 11,2 18 10 25 14 WSW 1021,3 11
20.04.2018 07:00:00 15,2 9,5 22 12 36 19 SSW 1021,0 18
20.04.2018 06:00:00 16,1 9,0 42 23 40 21 SSW 1020,9 10
20.04.2018 05:00:00 15,9 10,4 32 18 36 19 S 1021,3 14
20.04.2018 04:00:00 16,6 10,6 34 18 32 18 SE 1021,7 10
20.04.2018 03:00:00 17,0 10,7 29 16 32 18 SE 1022,4 14
20.04.2018 02:00:00 18,2 10,4 37 20 36 19 SE 1023,1 10
20.04.2018 01:00:00 19,8 10,1 32 18 32 18 ESE 1023,6 18
20.04.2018 00:00:00 20,9 9,6 32 18 32 18 ESE 1024,0 20
19.04.2018 23:00:00 21,7 9,4 32 18 36 19 ESE 1024,4 22
19.04.2018 22:00:00 23,3 8,4 42 23 40 21 ESE 1024,4 10
19.04.2018 21:00:00 24,3 9,7 32 18 36 19 ESE 1024,2 27
19.04.2018 20:00:00 24,9 12,2 32 18 36 19 E 1024,1 20
19.04.2018 19:00:00 25,0 12,9 31 17 32 18 E 1024,6 10
19.04.2018 18:00:00 26,0 10,7 16 9 18 10 E 1025,0 10
19.04.2018 17:00:00 25,5 9,7 18 10 25 14 ESE 1025,6 10
19.04.2018 16:00:00 22,3 8,2 28 15 29 16 SE 1026,3 10
19.04.2018 15:00:00 24,4 8,7 21 11 25 14 SE 1027,0 10
19.04.2018 14:00:00 23,6 7,8 28 15 25 14 SE 1027,1 10
19.04.2018 13:00:00 22,1 10,2 22 12 22 12 SE 1027,4 10
19.04.2018 12:00:00 20,9 11,0 22 12 22 12 SE 1028,0 10
19.04.2018 11:00:00 19,1 11,3 24 13 25 14 SE 1028,0 10
19.04.2018 10:00:00 16,6 10,4 26 14 29 16 SE 1028,0 10
19.04.2018 09:00:00 14,3 9,6 34 18 32 18 S 1028,2 10
19.04.2018 08:00:00 13,2 8,6 35 19 - - SE 1028,1 10
19.04.2018 07:00:00 13,4 8,3 32 18 36 19 SE 1027,8 12
19.04.2018 06:00:00 14,4 8,6 39 21 40 21 SE 1027,9 10
19.04.2018 05:00:00 15,4 8,5 32 18 36 19 ESE 1028,2 14
19.04.2018 04:00:00 15,4 9,2 25 14 40 21 ESE 1028,8 13
19.04.2018 03:00:00 15,8 9,4 44 24 43 23 SE 1028,9 10
19.04.2018 02:00:00 15,8 10,3 44 24 40 21 ESE 1029,3 10
19.04.2018 01:00:00 16,1 11,4 35 19 36 19 E 1029,8 10
19.04.2018 00:00:00 17,6 10,6 28 15 25 14 ESE 1030,2 10
18.04.2018 23:00:00 18,3 10,2 28 15 25 14 E 1030,4 10
18.04.2018 22:00:00 17,8 9,2 18 10 22 12 E 1030,6 10
18.04.2018 21:00:00 18,0 8,7 13 7 18 10 E 1030,7 10
18.04.2018 20:00:00 17,9 8,8 15 8 18 10 NE 1030,4 10
18.04.2018 19:00:00 19,5 9,4 4 2 7 4 N 1030,4 10
18.04.2018 18:00:00 21,1 9,7 2 1 4 2 - 1030,6 10
18.04.2018 17:00:00 18,4 9,6 2 1 11 6 - 1030,8 10
18.04.2018 16:00:00 17,3 9,8 5 3 11 6 - 1030,9 10
18.04.2018 15:00:00 16,6 9,4 8 4 22 12 WSW 1031,2 10
18.04.2018 14:00:00 20,3 8,7 22 12 22 12 SSW 1031,1 10
18.04.2018 13:00:00 19,6 9,9 18 10 22 12 SSW 1031,2 10
18.04.2018 12:00:00 18,4 10,0 18 10 22 12 S 1031,1 10
18.04.2018 11:00:00 16,6 10,2 16 9 25 14 SSW 1031,0 10
18.04.2018 10:00:00 14,5 9,7 24 13 25 14 SSW 1030,5 10
18.04.2018 09:00:00 12,9 8,8 26 14 29 16 SSW 1030,2 10
18.04.2018 08:00:00 13,3 8,1 26 14 25 14 SSW 1029,7 10
18.04.2018 07:00:00 13,8 8,2 28 15 29 16 SSW 1029,1 10
18.04.2018 06:00:00 13,7 8,3 26 14 29 16 SSW 1028,6 10
18.04.2018 05:00:00 12,8 8,4 31 17 32 18 - 1028,2 10
18.04.2018 04:00:00 13,1 8,2 31 17 32 18 SSW 1027,8 10
18.04.2018 03:00:00 13,4 8,2 29 16 32 18 SSW 1027,4 10
18.04.2018 02:00:00 13,5 8,3 26 14 29 16 SSW 1027,1 10
18.04.2018 01:00:00 14,1 8,4 21 11 22 12 SW 1027,0 10
18.04.2018 00:00:00 14,1 8,3 29 16 32 18 SSW 1026,8 10
17.04.2018 23:00:00 14,9 8,2 31 17 29 16 S 1026,1 10
17.04.2018 22:00:00 15,3 8,5 22 12 25 14 S 1025,8 17
17.04.2018 21:00:00 15,7 8,5 16 9 18 10 SSW 1025,4 10
17.04.2018 20:00:00 15,9 8,0 16 9 22 12 SW 1024,8 10
17.04.2018 19:00:00 15,8 7,3 22 12 25 14 WSW 1024,4 10
17.04.2018 18:00:00 15,5 7,0 24 13 29 16 SW 1024,7 10
17.04.2018 17:00:00 15,5 6,8 24 13 29 16 WSW 1024,8 10
17.04.2018 16:00:00 16,9 7,3 24 13 32 18 - 1024,5 10
17.04.2018 15:00:00 16,4 7,2 22 12 32 18 SSW 1024,3 22
17.04.2018 14:00:00 16,4 6,2 28 15 40 21 SSW 1023,9 10
17.04.2018 13:00:00 15,4 6,7 39 21 43 23 - 1024,0 10
17.04.2018 12:00:00 13,9 7,5 39 21 40 21 SSW 1024,0 10
17.04.2018 11:00:00 12,7 6,6 35 19 40 21 S 1023,6 10
17.04.2018 10:00:00 10,9 6,4 28 15 29 16 SSW 1023,5 10
17.04.2018 09:00:00 9,4 6,1 28 15 32 18 SSW 1023,5 10
17.04.2018 08:00:00 8,7 5,4 37 20 36 19 SSW 1022,8 10
17.04.2018 07:00:00 8,0 5,3 34 18 32 18 SSW 1022,4 10
17.04.2018 06:00:00 8,2 5,8 29 16 32 18 SSW 1021,7 10
17.04.2018 05:00:00 8,7 5,4 31 17 32 18 SSW 1021,2 10
17.04.2018 04:00:00 9,1 5,4 34 18 32 18 SSW 1020,9 10
17.04.2018 03:00:00 9,0 6,4 29 16 32 18 SSW 1020,8 10
17.04.2018 02:00:00 9,0 6,6 28 15 25 14 SSW 1020,6 10
17.04.2018 01:00:00 9,6 7,0 26 14 25 14 SSW 1020,5 10
17.04.2018 00:00:00 9,9 7,3 21 11 25 14 SSW 1020,0 10

tt = Température de l'air
td = dewpoint
ff = Vitesse du vent
fx = gusts
dd = Direction du vent
ppp = reduced air pressure
vv = visibility

stations d'obs. à proximité